RH
80 93 84 86 89 88 87 84 82 45 31 30 26 22 19 18 18 24 44 31 38 44 50 53 63 60 61 69 75 73 76 80 85 87 86 84 80 74 69 67 70 74 73
96 87 92 93 90 86 85 66 31 30 28 25 22 18 16 17 19 24 36 34 42 46 47 47 46 45 44 45 47 48 51 53 57 62 67 68 66 65 65 65 63 59 56
90 92 92 90 87 87 44 31 32 30 25 19 17 17 16 17 20 26 33 38 39 39 38 37 34 32 33 33 32 32 34 32 37 41 43 48 54 58 57 57 57 56 55
90 90 87 86 87 39 33 33 28 20 16 16 17 17 17 17 22 27 28 27 25 20 19 16 12 9 9 10 9 7 6 5 6 6 7 8 13 39 28 29 39 44 44
90 89 87 89 43 35 36 28 21 16 14 15 16 16 15 22 30 31 33 30 28 25 21 18 13 10 8 8 7 6 6 5 4 4 4 4 8 31 31 48 79 85 85
88 89 87 52 36 41 35 32 28 24 19 15 14 14 14 19 23 34 39 39 16 14 17 20 14 10 11 10 10 9 8 8 7 7 7 7 56 90 86 84 89 90 91
86 88 54 36 44 43 42 41 38 34 26 18 15 24 19 13 19 43 24 16 14 12 11 13 13 12 12 12 11 11 10 10 9 9 10 18 79 90 90 89 88 87 86
86 75 36 44 48 47 48 48 46 40 32 22 16 23 26 26 29 20 17 13 14 14 15 15 15 15 15 14 13 13 12 12 11 11 24 74 82 86 88 87 86 85 86
71 37 42 49 49 50 51 52 51 46 34 24 17 19 24 23 24 21 24 18 20 18 18 18 17 17 16 15 14 13 12 12 12 15 46 84 88 89 88 87 85 84 82
43 40 48 49 50 52 53 54 53 48 37 23 22 16 15 17 26 27 30 31 30 33 34 30 22 18 17 15 12 11 11 11 10 17 81 89 89 89 88 86 84 84 88
40 44 50 50 51 53 54 55 54 47 37 24 19 17 18 27 36 42 35 32 36 39 42 44 41 36 40 41 41 43 24 13 61 87 90 90 90 88 86 82 82 82 87
42 48 50 50 51 53 55 56 54 48 34 23 19 18 20 31 36 40 40 39 42 41 42 44 44 43 44 44 54 58 31 45 88 87 91 90 88 86 84 84 81 86 97
43 48 50 50 51 54 56 56 53 43 29 22 20 22 24 27 32 43 48 46 45 45 40 41 39 42 49 58 59 56 35 53 81 85 88 88 88 86 84 82 82 85 80
44 49 50 49 52 54 56 55 50 38 27 23 23 26 29 32 36 42 52 55 50 42 38 34 38 45 55 56 69 78 77 79 82 85 84 84 83 83 83 82 81 91 96
46 48 48 49 52 55 55 54 45 33 26 26 29 32 35 38 37 45 53 59 57 52 44 41 42 47 57 65 69 75 77 78 82 89 91 89 89 90 90 92 89 89 85
45 46 48 50 54 55 55 50 38 30 28 31 33 35 36 38 37 40 55 61 62 60 58 48 51 56 64 68 72 75 74 82 83 87 89 89 88 87 90 85 87 83 84
43 46 48 52 54 55 52 43 33 29 29 30 34 36 34 31 30 46 56 60 63 65 65 58 61 66 72 74 72 75 78 82 81 80 80 83 88 90 93 95 96 95 92
44 47 51 54 56 54 46 37 30 28 26 30 35 35 32 37 32 48 59 63 69 72 73 76 73 75 75 79 83 82 78 70 69 69 78 87 94 95 95 96 94 95 96
46 50 54 56 55 48 39 30 25 23 28 36 36 32 34 35 48 59 64 74 79 78 80 81 78 75 86 91 87 77 72 69 72 78 81 86 90 95 98 98 96 94 94
50 54 56 56 51 42 30 23 22 29 40 39 34 40 49 50 69 75 81 81 77 79 77 81 86 97 92 83 76 67 70 77 84 86 84 93 92 93 94 91 93 96 98
54 56 56 53 44 30 21 20 33 40 48 54 54 66 66 66 49 71 96 91 88 87 89 90 98 94 87 73 66 74 87 91 88 92 84 87 81 84 89 92 93 94 94
56 56 53 44 31 20 19 32 34 26 42 66 69 63 73 87 90 96 94 94 94 95 96 100 98 90 73 70 78 89 100 99 96 87 88 86 92 90 90 89 90 94 96
57 54 43 31 18 22 34 32 21 15 51 57 67 79 84 82 93 90 95 95 95 97 100 93 90 76 81 87 89 94 95 98 97 88 97 91 87 90 88 86 92 98 100
55 41 30 17 27 36 29 17 13 19 48 74 84 87 86 88 89 95 98 95 98 90 81 83 86 90 93 94 97 98 95 95 92 96 95 96 83 91 88 77 74 76 100
40 26 18 33 36 25 15 14 14 28 74 80 82 82 88 91 95 92 98 92 87 78 81 91 99 100 98 100 100 99 95 98 98 97 96 94 89 96 90 72 73 76 92
22 24 38 34 21 14 14 15 16 62 79 77 78 82 89 94 90 97 96 90 87 86 93 96 93 93 94 97 100 100 96 98 100 98 88 97 100 100 96 84 78 65 70
Wind_Speed
8 8 9 7 6 7 9 10 12 13 16 18 20 20 19 16 13 9 8 8 7 8 10 10 11 11 11 10 13 14 13 14 14 15 15 16 16 16 16 16 17 19 21
10 8 8 7 7 8 10 10 13 16 18 19 19 18 16 13 10 6 5 7 7 8 10 10 12 12 12 14 16 17 18 18 19 19 18 18 20 21 22 22 23 23 24
9 9 8 7 8 9 9 12 15 17 17 17 16 15 13 11 8 6 6 6 7 9 10 11 13 14 15 17 19 20 21 23 24 24 24 23 23 24 24 24 25 26 26
10 10 8 8 8 7 9 13 15 15 15 13 13 13 13 10 7 6 7 6 7 9 11 12 13 16 18 19 21 22 22 24 26 27 27 27 27 25 28 28 28 29 29
11 10 10 10 7 6 9 11 12 12 12 11 11 12 11 6 7 7 7 8 11 13 16 17 17 20 21 23 24 24 26 26 28 28 29 28 26 28 28 27 22 22 23
12 12 11 8 5 4 7 9 11 13 13 13 11 9 5 4 7 7 9 12 16 14 17 19 23 25 26 25 25 25 26 27 28 30 29 28 22 21 23 23 22 23 23
13 11 12 8 4 3 5 8 11 14 15 15 12 6 6 3 7 7 7 14 15 18 18 23 24 26 25 26 26 25 26 27 28 29 29 27 21 22 24 24 25 26 27
16 14 12 8 4 2 6 9 12 15 16 16 14 7 5 3 2 6 19 15 15 11 20 24 23 23 26 24 25 26 26 27 28 29 27 23 22 24 25 26 28 30 31
18 16 13 8 4 3 6 10 12 14 14 15 13 7 4 3 14 4 9 15 14 21 25 25 23 28 23 28 25 27 28 29 29 29 27 25 26 27 28 30 32 34 36
20 17 13 8 5 4 7 10 13 14 14 13 13 13 9 8 5 10 8 12 17 20 22 23 26 26 26 22 27 27 28 29 31 33 29 27 28 30 33 34 36 38 38
22 18 13 9 6 5 7 11 13 14 15 14 13 13 12 11 8 9 19 14 21 21 21 19 24 20 19 22 23 21 29 36 29 27 28 29 32 34 36 39 40 42 42
24 19 13 9 6 6 8 11 13 15 15 14 14 13 12 10 10 12 19 23 25 23 22 23 17 19 20 24 20 24 35 32 30 29 29 30 32 34 36 39 41 42 41
24 18 13 10 7 7 9 11 14 15 15 14 14 14 15 15 16 17 18 24 25 26 22 17 19 20 21 18 23 32 34 32 29 29 30 32 34 35 36 38 40 42 43
22 17 13 10 8 8 10 12 14 15 15 15 15 16 17 18 18 19 19 22 30 24 25 21 24 16 16 25 27 29 28 28 29 30 32 34 35 36 37 37 38 39 40
20 15 12 10 9 9 11 13 14 15 15 16 16 17 18 19 21 20 19 19 22 32 31 21 15 22 25 26 27 28 28 30 31 33 34 35 36 36 37 38 39 40 41
18 15 12 10 9 10 12 14 15 16 15 17 18 19 20 21 22 22 20 20 20 26 36 26 29 27 27 28 27 28 29 32 34 34 35 35 35 38 38 39 39 39 40
17 14 11 10 10 11 13 14 15 16 17 19 19 21 23 23 22 20 20 20 21 22 32 38 30 29 30 29 29 28 29 33 37 36 37 37 36 37 36 37 39 40 41
15 13 10 9 10 12 13 15 16 17 19 20 21 23 23 22 23 20 19 19 21 22 28 38 35 34 32 30 29 32 36 35 32 33 35 36 36 36 36 36 37 39 40
14 11 9 9 11 13 15 16 16 18 20 21 21 22 22 22 21 18 19 20 21 24 27 33 41 38 36 30 37 40 29 31 29 31 33 34 35 37 35 35 36 38 40
11 9 9 10 12 14 15 17 18 19 19 20 22 21 21 21 20 20 21 22 24 27 30 34 37 38 33 38 36 35 33 32 34 31 38 34 33 33 33 37 39 39 39
9 8 9 11 13 14 16 17 18 18 19 20 20 20 20 21 24 22 21 23 25 29 31 35 29 35 39 36 35 33 36 38 41 33 37 33 33 42 41 37 36 35 34
8 9 10 12 13 15 17 19 21 20 19 18 19 20 20 21 20 22 23 24 25 29 35 29 37 36 36 34 33 36 38 40 41 31 29 47 38 43 41 40 36 35 36
8 9 11 13 14 16 19 20 21 21 19 19 20 19 20 19 22 23 23 25 29 25 27 35 33 32 34 32 37 38 42 38 39 42 38 46 38 41 41 40 36 35 34
8 10 11 13 16 18 19 20 22 20 19 18 18 19 20 21 21 23 27 31 27 31 26 26 28 31 35 33 35 37 36 38 39 36 29 39 42 38 40 44 32 24 28
9 10 12 15 16 18 20 21 23 20 16 17 18 20 21 22 22 26 27 32 29 27 25 25 28 28 32 32 27 28 31 32 39 39 32 28 30 40 42 38 22 25 28
9 11 14 15 17 18 20 22 23 17 17 18 19 20 21 21 25 24 28 28 30 27 27 31 28 27 24 23 21 20 27 31 33 37 24 28 36 29 30 24 26 43 37
Wind_Direction
192 195 221 230 239 259 279 292 300 303 307 310 310 311 309 307 306 301 293 292 285 275 273 279 271 277 279 272 272 282 281 281 281 281 284 285 285 284 283 282 279 276 274
198 215 223 232 248 271 285 298 307 309 314 316 314 313 311 308 301 291 268 283 272 271 274 279 281 283 283 281 282 284 283 280 276 275 275 276 278 277 277 277 275 274 273
207 223 222 229 253 276 294 307 314 319 321 321 317 315 311 304 294 273 259 260 271 274 279 284 287 290 290 289 289 288 287 287 283 281 278 276 276 277 276 275 274 273 271
217 218 227 240 259 277 306 317 321 326 330 329 321 315 306 294 263 250 250 252 268 285 292 292 297 301 300 298 296 295 292 290 288 286 286 285 284 283 278 274 274 275 273
212 217 224 239 245 290 319 326 332 337 339 337 328 318 301 265 236 240 251 266 282 291 292 295 305 308 306 306 304 299 295 293 292 290 288 285 285 281 282 282 282 277 278
209 214 220 217 248 311 335 343 344 347 349 348 344 329 312 272 248 244 267 289 292 307 301 301 308 314 315 312 307 304 301 298 297 294 293 290 284 278 283 283 277 276 277
200 209 205 213 232 316 347 355 353 352 351 353 1 336 328 300 271 252 263 310 289 296 311 316 318 318 315 311 308 306 304 302 299 297 295 294 284 279 282 280 277 273 272
198 200 204 210 230 315 354 359 360 354 352 356 5 354 318 290 288 304 280 276 307 305 311 310 313 315 315 312 310 307 304 300 298 298 297 296 288 284 283 279 275 273 271
195 198 203 213 238 318 351 356 356 356 351 349 357 12 325 292 311 276 290 298 299 306 308 314 318 323 316 316 313 310 306 303 299 296 296 295 290 286 283 281 279 276 274
194 200 206 220 246 312 342 347 349 349 350 345 346 344 336 306 307 306 300 304 288 310 311 312 316 318 313 311 310 308 304 301 300 298 299 294 289 286 283 282 280 276 274
197 202 210 224 249 306 332 339 343 344 343 340 336 332 328 317 301 291 302 301 303 307 304 310 312 312 311 311 311 310 300 309 308 304 299 295 290 286 282 280 279 277 276
198 201 211 228 254 299 324 333 335 337 336 332 329 326 322 312 301 293 295 300 305 312 302 306 306 305 307 309 306 301 309 310 307 305 300 297 292 288 284 281 280 279 279
199 204 215 233 258 293 316 326 331 332 329 325 322 317 315 312 306 299 297 300 301 306 308 306 299 303 303 304 305 303 307 308 307 304 301 299 295 291 287 284 282 279 276
202 208 222 238 262 290 311 324 327 325 323 319 316 315 312 308 304 301 299 302 306 305 302 298 299 292 296 301 302 305 304 300 300 300 298 297 296 293 291 288 286 282 279
204 215 228 243 267 293 312 319 322 322 320 315 313 310 308 305 305 303 298 294 295 301 303 302 290 300 302 302 302 301 300 298 296 295 296 295 291 289 289 286 287 282 281
209 220 231 250 274 297 310 317 321 319 316 311 308 306 308 308 305 303 298 293 288 288 290 294 298 300 302 301 302 302 300 297 297 295 295 294 291 291 288 287 285 283 281
214 223 237 257 282 301 311 317 316 314 311 307 307 308 310 308 306 301 298 294 291 290 290 296 298 301 302 304 303 300 301 298 300 298 294 293 293 291 290 288 286 284 280
217 228 243 267 291 304 311 313 312 310 308 308 308 309 311 309 308 304 301 298 295 295 293 296 302 304 304 305 300 303 304 299 296 296 297 297 296 293 291 289 287 286 283
221 233 254 280 297 306 309 311 311 310 309 308 308 308 308 308 307 304 302 300 299 298 295 296 299 301 302 306 307 304 305 302 300 299 298 296 295 294 293 291 290 287 283
226 245 270 289 300 305 310 311 312 312 309 307 306 304 305 304 303 306 303 300 299 297 296 294 293 298 303 306 307 307 307 305 305 305 300 298 298 295 294 292 290 287 284
238 261 281 295 303 309 309 313 315 313 309 304 302 302 302 299 304 304 300 300 299 297 295 296 293 302 306 307 307 306 305 307 306 308 305 305 302 298 300 297 293 289 287
251 273 289 300 306 308 312 315 316 313 306 303 302 304 304 304 304 304 301 299 296 299 297 297 304 302 301 303 305 304 305 308 306 313 302 302 304 302 301 299 296 293 290
264 284 297 303 308 314 316 316 315 315 306 305 306 305 305 303 305 305 303 303 300 299 295 298 297 297 299 299 303 305 303 302 298 303 307 301 306 300 300 302 299 296 292
277 291 300 310 316 316 317 318 319 318 311 306 305 305 305 306 307 307 307 307 303 305 299 294 293 294 295 300 298 298 297 298 303 303 304 296 306 303 307 309 315 308 300
285 299 311 315 318 318 321 323 322 320 310 308 308 309 307 305 305 312 308 309 309 304 301 300 300 298 295 297 297 299 300 301 302 306 311 300 306 307 313 319 319 315 304
300 312 317 320 320 322 324 325 325 322 315 313 312 309 304 306 310 311 312 309 306 306 308 312 306 302 303 303 305 298 297 299 303 308 313 308 311 317 316 309 307 323 329